AVA9701 SKBO-SKEJ

Flight info

Callsign AVA9701
Flight time 0h 33m
Altitude 23000
Route DANSA4R GIKPU A301 YACAR YACAR1B
Aircraft A320/M-SDE3FGHIRWY/LB1

Departure

Time 2026-05-06 22:30
Airport El Dorado International Airport (SKBO)

Arrival

Time 2026-05-06 23:04
Airport Yariguíes Airport (SKEJ)
Time Latitude Longitude Altitude Speed Heading
2026-05-06 22:19 4.69777 -74.14525 8366 ft 0 kts 38°
2026-05-06 22:21 4.69765 -74.14534 8366 ft 2 kts 38°
2026-05-06 22:21 4.69752 -74.14544 8366 ft 2 kts 38°
2026-05-06 22:22 4.69738 -74.14553 8366 ft 2 kts
2026-05-06 22:22 4.69725 -74.14547 8366 ft 2 kts 308°
2026-05-06 22:22 4.69717 -74.14537 8366 ft 0 kts 309°
2026-05-06 22:23 4.69723 -74.14544 8366 ft 3 kts 309°
2026-05-06 22:24 4.69746 -74.14575 8366 ft 9 kts 307°
2026-05-06 22:24 4.69789 -74.14632 8366 ft 13 kts 307°
2026-05-06 22:24 4.69842 -74.14700 8366 ft 11 kts 308°
2026-05-06 22:24 4.69883 -74.14759 8366 ft 9 kts 303°
2026-05-06 22:25 4.69923 -74.14816 8366 ft 11 kts 306°
2026-05-06 22:25 4.69979 -74.14840 8366 ft 8 kts 14°
2026-05-06 22:25 4.70048 -74.14789 8366 ft 22 kts 38°
2026-05-06 22:25 4.70197 -74.14676 8366 ft 25 kts 37°
2026-05-06 22:26 4.70337 -74.14570 8366 ft 26 kts 37°
2026-05-06 22:26 4.70459 -74.14479 8366 ft 15 kts 36°
2026-05-06 22:26 4.70507 -74.14452 8366 ft 4 kts
2026-05-06 22:26 4.70542 -74.14479 8366 ft 11 kts 308°
2026-05-06 22:27 4.70626 -74.14590 8367 ft 29 kts 308°
2026-05-06 22:27 4.70749 -74.14750 8367 ft 27 kts 307°
2026-05-06 22:27 4.70865 -74.14904 8367 ft 28 kts 306°
2026-05-06 22:27 4.70983 -74.15062 8366 ft 27 kts 307°
2026-05-06 22:28 4.71078 -74.15189 8366 ft 15 kts 307°
2026-05-06 22:28 4.71164 -74.15217 8366 ft 14 kts 355°
2026-05-06 22:28 4.71230 -74.15222 8367 ft 7 kts 355°
2026-05-06 22:28 4.71272 -74.15225 8366 ft 7 kts 355°
2026-05-06 22:29 4.71315 -74.15201 8366 ft 9 kts 59°
2026-05-06 22:29 4.71294 -74.15147 8366 ft 10 kts 128°
2026-05-06 22:29 4.71244 -74.15081 8365 ft 16 kts 127°
2026-05-06 22:29 4.71039 -74.14807 8365 ft 86 kts 127°
2026-05-06 22:30 4.70546 -74.14154 8367 ft 147 kts 127°
2026-05-06 22:30 4.69843 -74.13217 8543 ft 182 kts 125°
2026-05-06 22:30 4.69054 -74.12144 9271 ft 196 kts 124°
2026-05-06 22:30 4.68537 -74.10930 10054 ft 196 kts 92°
2026-05-06 22:31 4.68983 -74.09596 10342 ft 220 kts 50°
2026-05-06 22:31 4.70319 -74.08739 10687 ft 242 kts 25°
2026-05-06 22:31 4.71950 -74.08225 11322 ft 248 kts 18°
2026-05-06 22:31 4.73624 -74.07807 12197 ft 248 kts 18°
2026-05-06 22:32 4.75312 -74.07381 13042 ft 252 kts 19°
2026-05-06 22:32 4.77017 -74.06916 13860 ft 255 kts 21°
2026-05-06 22:32 4.78723 -74.06413 14626 ft 257 kts 22°
2026-05-06 22:32 4.80498 -74.05853 14976 ft 279 kts 22°
2026-05-06 22:33 4.82422 -74.05217 15232 ft 303 kts 22°
2026-05-06 22:33 4.84495 -74.04518 15463 ft 326 kts 22°
2026-05-06 22:33 4.86726 -74.03762 15638 ft 350 kts 22°
2026-05-06 22:33 4.89104 -74.02954 15767 ft 372 kts 22°
2026-05-06 22:34 4.91571 -74.02117 16054 ft 385 kts 21°
2026-05-06 22:34 4.94130 -74.01255 16606 ft 390 kts 21°
2026-05-06 22:34 4.96716 -74.00386 16877 ft 393 kts 21°
2026-05-06 22:34 4.99301 -73.99516 17160 ft 391 kts 21°
2026-05-06 22:35 5.01894 -73.98644 17626 ft 395 kts 20°
2026-05-06 22:35 5.04541 -73.97856 18102 ft 399 kts 18°
2026-05-06 22:35 5.07241 -73.97159 18558 ft 402 kts 16°
2026-05-06 22:35 5.09968 -73.96516 18975 ft 405 kts 15°
2026-05-06 22:36 5.12693 -73.95891 19386 ft 408 kts 15°
2026-05-06 22:36 5.15461 -73.95250 19811 ft 411 kts 15°
2026-05-06 22:36 5.18253 -73.94585 20269 ft 413 kts 16°
2026-05-06 22:36 5.21054 -73.93899 20737 ft 415 kts 16°
2026-05-06 22:37 5.23864 -73.93200 21211 ft 418 kts 16°
2026-05-06 22:37 5.26692 -73.92489 21691 ft 421 kts 16°
2026-05-06 22:37 5.29549 -73.91769 22189 ft 424 kts 16°
2026-05-06 22:37 5.32416 -73.91047 22685 ft 427 kts 15°
2026-05-06 22:38 5.35312 -73.90322 22985 ft 431 kts 15°
2026-05-06 22:38 5.38204 -73.89600 23050 ft 439 kts 15°
2026-05-06 22:38 5.41204 -73.88853 23055 ft 450 kts 15°
2026-05-06 22:38 5.44270 -73.88090 23045 ft 457 kts 15°
2026-05-06 22:39 5.47369 -73.87318 23042 ft 459 kts 15°
2026-05-06 22:39 5.50466 -73.86548 23039 ft 459 kts 15°
2026-05-06 22:39 5.53564 -73.85780 23038 ft 459 kts 14°
2026-05-06 22:39 5.56680 -73.85058 23032 ft 459 kts 13°
2026-05-06 22:40 5.59811 -73.84397 23031 ft 459 kts 12°
2026-05-06 22:40 5.62947 -73.83778 23020 ft 460 kts 12°
2026-05-06 22:40 5.66082 -73.83173 23026 ft 460 kts 12°
2026-05-06 22:40 5.69230 -73.82561 23018 ft 460 kts 12°
2026-05-06 22:41 5.75459 -73.81306 23006 ft 460 kts 12°
2026-05-06 22:41 5.78592 -73.80657 22999 ft 459 kts 13°
2026-05-06 22:41 5.81717 -73.80007 22994 ft 459 kts 13°
2026-05-06 22:42 5.84847 -73.79355 22982 ft 459 kts 13°
2026-05-06 22:42 5.87979 -73.78707 22979 ft 460 kts 13°
2026-05-06 22:42 5.91112 -73.78061 22975 ft 460 kts 13°
2026-05-06 22:42 5.94249 -73.77415 22969 ft 460 kts 12°
2026-05-06 22:43 5.97339 -73.76778 22963 ft 460 kts 12°
2026-05-06 22:43 6.00477 -73.76130 22961 ft 461 kts 13°
2026-05-06 22:43 6.03616 -73.75483 22955 ft 461 kts 13°
2026-05-06 22:43 6.06762 -73.74836 22951 ft 461 kts 12°
2026-05-06 22:44 6.09641 -73.74245 22953 ft 461 kts 12°
2026-05-06 22:44 6.12619 -73.73635 22945 ft 461 kts 12°
2026-05-06 22:44 6.15759 -73.72991 22938 ft 462 kts 12°
2026-05-06 22:44 6.18899 -73.72344 22795 ft 452 kts 13°
2026-05-06 22:45 6.21918 -73.71724 22348 ft 437 kts 12°
2026-05-06 22:45 6.24907 -73.71108 21243 ft 435 kts 13°
2026-05-06 22:45 6.27776 -73.70515 20363 ft 419 kts 13°
2026-05-06 22:45 6.30581 -73.69934 19472 ft 405 kts 13°
2026-05-06 22:46 6.33299 -73.69370 18631 ft 393 kts 14°
2026-05-06 22:46 6.35942 -73.68826 17768 ft 383 kts 14°
2026-05-06 22:46 6.38498 -73.68301 17160 ft 369 kts 14°
2026-05-06 22:46 6.41018 -73.67781 16426 ft 372 kts 14°
2026-05-06 22:47 6.43522 -73.67262 15703 ft 360 kts 14°
2026-05-06 22:47 6.45937 -73.66766 15023 ft 350 kts 13°
2026-05-06 22:47 6.48301 -73.66562 14383 ft 344 kts
2026-05-06 22:47 6.50631 -73.66945 13736 ft 340 kts 348°
2026-05-06 22:48 6.52906 -73.67542 13049 ft 331 kts 348°
2026-05-06 22:48 6.55104 -73.68118 12441 ft 322 kts 347°
2026-05-06 22:48 6.57248 -73.68679 11845 ft 314 kts 347°
2026-05-06 22:48 6.59343 -73.69224 11251 ft 307 kts 347°
2026-05-06 22:49 6.61393 -73.69753 10660 ft 302 kts 347°
2026-05-06 22:49 6.63414 -73.70275 10031 ft 298 kts 346°
2026-05-06 22:49 6.65413 -73.70791 9342 ft 295 kts 346°
2026-05-06 22:49 6.67385 -73.71307 8674 ft 290 kts 344°
2026-05-06 22:50 6.69223 -73.72100 8000 ft 287 kts 328°
2026-05-06 22:50 6.70712 -73.73296 7722 ft 268 kts 315°
2026-05-06 22:50 6.71993 -73.74567 7505 ft 250 kts 315°
2026-05-06 22:50 6.73200 -73.75753 7277 ft 235 kts 315°
2026-05-06 22:51 6.74337 -73.76866 7056 ft 222 kts 315°
2026-05-06 22:51 6.75416 -73.77922 6849 ft 210 kts 315°
2026-05-06 22:51 6.76436 -73.78924 6650 ft 200 kts 315°
2026-05-06 22:51 6.77400 -73.79874 6473 ft 188 kts 315°
2026-05-06 22:52 6.78312 -73.80773 6313 ft 181 kts 314°
2026-05-06 22:52 6.79214 -73.81618 6096 ft 174 kts 322°
2026-05-06 22:52 6.80236 -73.82194 5932 ft 170 kts 338°
2026-05-06 22:52 6.81379 -73.82468 5767 ft 169 kts 354°
2026-05-06 22:53 6.82554 -73.82433 5609 ft 169 kts
2026-05-06 22:53 6.83724 -73.82323 5441 ft 169 kts
2026-05-06 22:53 6.84891 -73.82215 5279 ft 168 kts
2026-05-06 22:53 6.86057 -73.82108 5118 ft 168 kts
2026-05-06 22:54 6.87224 -73.82001 4961 ft 170 kts
2026-05-06 22:54 6.88426 -73.81891 4796 ft 176 kts
2026-05-06 22:54 6.89645 -73.81779 4620 ft 176 kts
2026-05-06 22:54 6.90849 -73.81666 4450 ft 175 kts
2026-05-06 22:55 6.92075 -73.81552 4278 ft 174 kts
2026-05-06 22:55 6.93262 -73.81442 4106 ft 174 kts
2026-05-06 22:55 6.94468 -73.81331 3947 ft 176 kts
2026-05-06 22:55 6.95709 -73.81217 3775 ft 181 kts
2026-05-06 22:56 6.96968 -73.81102 3603 ft 181 kts
2026-05-06 22:56 6.98223 -73.80987 3424 ft 181 kts
2026-05-06 22:56 6.99473 -73.80871 3253 ft 181 kts
2026-05-06 22:56 7.00723 -73.80755 3094 ft 180 kts
2026-05-06 22:57 7.01968 -73.80639 3014 ft 180 kts
2026-05-06 22:57 7.03176 -73.80485 2992 ft 168 kts 17°
2026-05-06 22:57 7.04058 -73.79881 2992 ft 150 kts 51°
2026-05-06 22:57 7.04459 -73.78958 2993 ft 143 kts 82°
2026-05-06 22:58 7.04343 -73.77976 3003 ft 142 kts 109°
2026-05-06 22:58 7.04158 -73.77019 3005 ft 140 kts 78°
2026-05-06 22:58 7.04312 -73.76050 2827 ft 142 kts 97°
2026-05-06 22:58 7.03712 -73.75303 2572 ft 149 kts 165°
2026-05-06 22:59 7.02714 -73.75500 2711 ft 161 kts 215°
2026-05-06 22:59 7.01845 -73.76260 2650 ft 166 kts 224°
2026-05-06 22:59 7.01018 -73.77052 2621 ft 166 kts 224°
2026-05-06 22:59 7.00264 -73.77913 2576 ft 164 kts 234°
2026-05-06 23:00 6.99598 -73.78844 2531 ft 164 kts 235°
2026-05-06 23:00 6.98945 -73.79781 2493 ft 163 kts 236°
2026-05-06 23:00 6.98294 -73.80714 2452 ft 163 kts 236°
2026-05-06 23:00 6.97639 -73.81651 2340 ft 163 kts 236°
2026-05-06 23:01 6.96998 -73.82562 2184 ft 158 kts 235°
2026-05-06 23:01 6.96373 -73.83447 2026 ft 153 kts 235°
2026-05-06 23:01 6.95974 -73.84409 1788 ft 150 kts 276°
2026-05-06 23:01 6.96482 -73.85246 1657 ft 142 kts 332°
2026-05-06 23:02 6.97407 -73.85307 1510 ft 139 kts 25°
2026-05-06 23:02 6.98000 -73.84595 1354 ft 138 kts 77°
2026-05-06 23:02 6.98105 -73.83629 1230 ft 139 kts 73°
2026-05-06 23:02 6.98641 -73.82833 1076 ft 140 kts 39°
2026-05-06 23:03 6.99482 -73.82347 913 ft 140 kts 26°
2026-05-06 23:03 7.00354 -73.81913 712 ft 139 kts 27°
2026-05-06 23:03 7.01195 -73.81421 573 ft 140 kts 31°
2026-05-06 23:03 7.02027 -73.80927 424 ft 134 kts 30°
2026-05-06 23:04 7.02610 -73.80579 415 ft 39 kts 31°
2026-05-06 23:04 7.02805 -73.80461 417 ft 27 kts 31°
2026-05-06 23:04 7.02949 -73.80374 416 ft 21 kts 30°
2026-05-06 23:04 7.02990 -73.80350 416 ft 0 kts 30°
2026-05-06 23:05 7.03011 -73.80341 409 ft 3 kts 329°
2026-05-06 23:05 7.03000 -73.80352 411 ft 9 kts 214°
2026-05-06 23:05 7.02931 -73.80384 414 ft 9 kts 210°
2026-05-06 23:05 7.02847 -73.80435 415 ft 22 kts 211°
2026-05-06 23:06 7.02720 -73.80511 415 ft 21 kts 211°
2026-05-06 23:06 7.02599 -73.80582 414 ft 19 kts 209°
2026-05-06 23:06 7.02554 -73.80617 417 ft 5 kts 235°
2026-05-06 23:06 7.02544 -73.80653 408 ft 6 kts 261°
2026-05-06 23:07 7.02535 -73.80696 416 ft 7 kts 257°
2026-05-06 23:07 7.02515 -73.80736 416 ft 6 kts 225°
2026-05-06 23:07 7.02480 -73.80759 416 ft 5 kts 210°
2026-05-06 23:07 7.02475 -73.80784 411 ft 3 kts 295°
2026-05-06 23:08 7.02488 -73.80804 410 ft 3 kts 305°
2026-05-06 23:08 7.02500 -73.80823 409 ft 3 kts 302°
2026-05-06 23:08 7.02501 -73.80823 409 ft 0 kts 302°